Regional Weather Roundup
Issued by NWS

Home | Current Version | Previous Version | Graphics & Text | Print | Product List | Glossary Off
Versions: 1 2 3 4 5 6 7 8 9 10 11 12 13 14 15 16 17 18 19 20 21 22 23 24 25 26 27 28 29 30 31 32 33 34 35 36 37 38 39 40 41 42 43 44 45 46 47 48 49 50

000
ASUS43 KDTX 260410
RWRMI
MICHIGAN HOURLY REGIONAL WEATHER ROUNDUP
NATIONAL WEATHER SERVICE DETROIT/PONTIAC MI
1100 PM EST THU DEC 25 2014

NOTE: "FAIR" INDICATES FEW OR NO CLOUDS BELOW 12,000 FEET WITH NO
SIGNIFICANT WEATHER AND/OR OBSTRUCTION TO VISIBILITY.

MIZ047>049-052>055-059>063-066>070-074>076-081>083-260500-
SOUTHEAST LOWER MICHIGAN

CITY           SKY/WX    TMP DP  RH WIND       PRES   REMARKS
ADRIAN         CLEAR     33  30  88 SW9       30.13R
ALMA           CLEAR     33  31  94 S12       30.04F
ANN ARBOR      CLEAR     32  29  88 S7        30.10F
BAD AXE        PTCLDY    33  31  92 SW8       30.06R
DETROIT CITY   PTCLDY    37  29  72 SW10      30.12R
DETROIT        MOCLDY    32  29  88 S8        30.12F
FLINT          CLEAR     35  29  78 S12       30.07F
GROSSE ILE     PTCLDY    36  30  80 S8        30.12S
HILLSDALE      PTCLDY    33  32  94 S7        30.09R
HOWELL         CLEAR     32  29  90 S7        30.08R

CITY           SKY/WX    TMP DP  RH WIND       PRES   REMARKS
JACKSON        PTCLDY    34  29  82 S10       30.07F
LAMBERTVILLE   CLEAR     36  32  87 S6        30.13F
LANSING        CLEAR     34  29  82 S10       30.07S
LAPEER         NOT AVBL
MASON          CLEAR     33  29  85 S6        30.06F
MONROE         CLEAR     34  30  86 S5        30.11S
MT. CLEMENS    PTCLDY    35  34  96 SW12      30.09S
PONTIAC        PTCLDY    33  28  81 S7        30.07F
PORT HOPE        N/A     35  28  75 SW8G21    30.02S
PORT HURON     PTCLDY    34  30  86 SW7G16    30.11R
TRI CITIES     PTCLDY    35  29  78 SW13G20   30.05R
YPSILANTI      CLEAR     37  29  72 S10       30.12S
$$
MIZ043>046-050>051-056>058-064>065-071>073-077>080-260500-
SOUTHWEST LOWER MICHIGAN

CITY           SKY/WX    TMP DP  RH WIND       PRES   REMARKS
BATTLE CREEK   MOCLDY    35  29  78 S10       30.05F
BENTON HARBOR  CLOUDY    37  32  82 S12       30.03F
BIG RAPIDS     CLEAR     34  32  93 S8        29.98S
COLDWATER      MOCLDY    34  30  86 MISG      30.07F
HOLLAND        MOCLDY    37  31  78 S10       30.03R
GRAND RAPIDS   PTCLDY    33  29  85 S8        30.03S
KALAMAZOO      MOCLDY    35  30  82 S12       30.05F
MARSHALL       PTCLDY    33  30  88 S7        30.06F
MUSKEGON       PTCLDY    38  33  82 S10       30.01R
$$
MIZ016>042-260500-
NORTHERN LOWER MICHIGAN

CITY           SKY/WX    TMP DP  RH WIND       PRES   REMARKS
ALPENA         CLOUDY    35  29  78 SW7       30.00R
BEAVER ISLAND  RAIN      34  33  98 W13       29.95S
BELLAIRE       CLOUDY    37  32  81 SW8       29.99R
CADILLAC       CLOUDY    34  32  93 S9        29.96S
CHARLEVOIX     CLOUDY    37  33  88 SW7       29.99R
FRANKFORT      CLOUDY    36  33  89 SE5       29.97R
GAYLORD        CLOUDY    33  30  88 SW12      29.95R
GRAYLING       CLOUDY    33  31  92 SW6       29.99R
HARBOR SPRINGS CLOUDY    36  33  90 SW6       29.96R
HOUGHTON LAKE  CLOUDY    34  30  85 SW8       29.99R
MANISTEE       CLOUDY    34  30  86 CALM      29.98R
OSCODA         CLOUDY    35  31  85 SW12      30.01S
PELLSTON       LGT RAIN  35  33  92 SW5       29.96R
TRAVERSE CITY  CLOUDY    37  32  82 S7        29.97R
$$
MIZ007>008-015-260500-
EASTERN UPPER MICHIGAN

CITY           SKY/WX    TMP DP  RH WIND       PRES   REMARKS
KINROSS        CLOUDY    36  34  93 SW7       29.93R
MACKINAC ISLAN MIX PCPN  35  34  98 W9G16     29.94S
NEWBERRY       CLOUDY    32  31  96 SW8       29.92R
S. S. MARIE    CLOUDY    34  30  85 SW7       29.92R
$$
MIZ004>006-011>014-085-260500-
CENTRAL UPPER MICHIGAN

CITY           SKY/WX    TMP DP  RH WIND       PRES   REMARKS
MANISTIQUE     LGT SNOW  32  32 100 MISG      29.94R
ESCANABA       CLOUDY    32  30  93 W3        29.93R
MENOMINEE      MOCLDY    34  28  80 CALM      29.93R
SAWYER-GWINN   LGT SNOW  32  30  94 SW7       29.90R
$$
MIZ001>003-009>011-084-260500-
WESTERN UPPER MICHIGAN

CITY           SKY/WX    TMP DP  RH WIND       PRES   REMARKS
IRON MOUNTAIN  LGT SNOW  31  30  96 CALM      29.89S FOG
HOUGHTON       CLOUDY    32  28  85 SW6       29.86R
COPPER HARBOR    N/A     34  30  85 VRB3      29.87R
IRONWOOD       CLOUDY    30  30 100 SW5       29.87R
$$

ABBREVIATIONS USED IN REMARKS
   TC - TEMPERATURE IN CELSIUS
  WCI - WIND CHILL INDEX
   HX - HEAT INDEX
  VSB - VISIBILITY




USA.gov is the U.S. government's official web portal to all federal, state and local government web resources and services.